Temp
5 5 5 4 5 5 5 5 5 5 5 6 6 6 6 6 6 6 5 6 6 6 6 6 6 5 6 6 6 7 7 9 9 9 7 7 6 6 7 7 7 7 7 7 6
5 5 5 4 5 5 5 5 5 5 5 6 6 6 6 6 6 6 6 6 6 6 6 6 6 6 6 6 6 6 8 9 9 8 8 8 7 7 7 7 7 7 7 6 5
5 5 5 5 5 5 5 5 5 5 6 6 6 6 6 6 6 6 6 6 6 5 5 5 5 5 4 5 6 6 8 8 8 8 8 8 8 7 7 6 7 6 7 6 6
6 5 5 5 5 5 5 5 5 5 5 6 6 6 5 5 5 5 5 5 5 5 6 5 5 5 5 5 6 7 7 8 8 9 9 8 8 7 7 7 7 7 6 6 6
5 5 5 5 5 5 5 5 5 5 6 5 6 5 5 5 5 5 5 6 6 5 5 5 5 5 5 6 7 7 7 8 8 9 7 8 7 7 7 7 7 7 6 6 5
5 5 5 5 5 5 5 5 5 5 5 5 5 5 5 5 5 5 5 5 6 5 5 6 6 6 6 6 7 7 8 8 8 8 8 7 8 7 7 7 6 6 5 5 5
5 5 5 5 5 5 5 5 5 5 5 5 5 5 5 5 5 5 6 6 6 6 6 6 6 6 7 7 8 7 8 9 8 8 8 7 7 8 7 7 6 6 6 5 5
5 5 5 5 5 5 5 5 5 5 5 5 5 5 5 5 5 6 6 6 6 6 6 7 7 7 7 8 7 7 8 8 7 8 8 8 8 8 7 7 6 6 6 6 5
5 5 5 5 5 5 4 4 4 5 5 5 5 5 5 5 6 6 6 6 7 7 7 7 7 8 8 8 8 8 9 8 7 8 8 8 8 8 7 7 6 6 6 6 6
4 4 4 5 5 4 4 4 4 4 4 5 5 5 5 5 5 6 6 6 7 7 7 7 7 8 8 8 9 9 8 8 8 7 8 7 8 8 8 7 7 7 6 6 6
4 4 4 4 4 4 4 4 4 4 5 5 5 5 5 5 6 6 6 6 7 7 7 7 7 8 8 8 8 9 9 9 7 8 8 8 8 8 8 8 7 7 7 6 6
3 3 4 4 4 4 3 4 3 4 4 5 5 5 5 5 6 6 6 6 7 7 8 7 7 8 8 8 8 8 9 8 8 8 8 8 8 8 8 8 7 7 7 6 6
3 3 4 4 3 3 3 3 3 4 4 5 5 5 5 5 5 6 6 6 7 7 8 8 7 8 8 8 8 8 9 8 8 8 7 7 7 8 8 8 8 7 7 7 7
3 3 3 3 3 2 3 3 3 4 4 5 5 5 5 5 5 6 6 6 7 7 7 8 8 8 8 8 8 8 8 8 7 7 9 7 10 6 8 8 7 7 7 6 6
3 3 3 3 2 2 3 3 4 4 5 5 5 5 5 5 5 6 6 6 6 7 8 8 8 7 7 8 8 7 8 8 7 8 7 7 9 7 6 7 7 7 6 6 5
2 3 2 2 2 2 3 3 4 4 5 5 5 5 5 5 5 6 6 6 6 7 7 8 8 7 7 7 7 7 8 7 6 7 8 8 8 9 6 6 6 6 5 5 5
2 2 2 2 2 2 3 3 4 5 5 5 5 5 5 5 6 6 6 6 7 6 7 6 6 7 7 7 6 6 7 8 8 8 8 6 6 8 7 7 5 6 5 5 4
2 2 2 2 2 2 3 3 4 5 5 5 5 5 5 5 6 6 6 6 6 7 7 7 6 6 6 6 6 6 7 8 7 7 9 5 8 8 7 7 5 5 4 4 3
2 1 1 2 2 2 3 3 4 5 5 5 5 5 5 5 6 6 6 6 7 7 7 7 6 6 6 6 6 6 6 6 6 5 6 8 7 7 6 6 4 3 3 3 3
2 1 1 1 2 2 3 3 4 4 5 5 5 5 6 5 5 6 6 6 6 6 6 7 6 5 6 5 5 6 6 6 6 6 6 8 7 8 6 6 5 3 4 3 3
1 1 1 1 2 2 2 3 4 4 5 5 5 5 5 5 5 5 6 6 6 6 6 6 6 5 5 5 6 5 5 6 5 5 7 7 9 7 6 5 6 5 4 3 3
1 1 1 1 1 2 3 3 4 4 5 5 5 5 5 5 5 5 5 6 6 6 6 6 6 5 5 5 5 5 5 5 6 5 4 3 7 6 6 5 5 4 3 3 3
1 0 1 1 1 2 2 3 4 4 5 5 5 5 5 5 5 5 5 5 5 5 5 6 5 5 5 4 5 4 5 5 6 5 4 4 7 6 6 5 5 4 3 3 3
0 0 1 1 2 2 2 3 4 4 4 5 5 5 5 5 6 6 5 5 5 5 5 5 5 6 7 7 6 5 6 6 5 4 5 5 7 6 5 5 5 4 4 3 3
-0 0 1 1 1 2 2 3 3 4 4 5 5 5 5 5 6 5 5 5 5 5 5 5 5 5 6 6 6 6 5 6 5 5 5 6 5 5 4 4 4 4 3 3 3
-1 0 1 1 2 2 2 3 4 4 4 4 5 5 5 5 5 5 5 5 5 5 5 5 4 5 5 5 5 5 6 5 5 5 5 5 6 5 5 5 4 4 3 2 2
-1 0 1 2 1 2 2 3 4 4 4 4 5 5 5 5 5 5 5 5 5 5 5 4 4 4 4 5 4 4 6 6 6 6 6 5 5 5 5 4 4 3 2 2 2
Height
3151 3150 3148 3147 3146 3144 3143 3139 3137 3135 3131 3128 3128 3129 3129 3129 3127 3126 3125 3124 3126 3128 3130 3132 3134 3136 3138 3141 3143 3146 3150 3149 3151 3152 3153 3153 3157 3157 3158 3158 3159 3160 3160 3159 3159
3146 3146 3144 3143 3141 3140 3138 3135 3132 3131 3127 3126 3127 3127 3128 3126 3125 3124 3124 3123 3125 3127 3129 3131 3133 3136 3138 3140 3143 3146 3149 3148 3150 3153 3154 3154 3155 3156 3157 3157 3158 3159 3159 3159 3161
3141 3141 3140 3138 3136 3135 3133 3130 3128 3126 3124 3124 3125 3126 3126 3126 3125 3124 3123 3123 3125 3127 3128 3129 3132 3135 3138 3139 3142 3145 3147 3148 3149 3152 3154 3154 3155 3156 3157 3159 3160 3158 3158 3160 3162
3136 3137 3135 3134 3132 3130 3129 3125 3124 3123 3122 3122 3124 3124 3125 3126 3129 3125 3124 3124 3125 3127 3129 3131 3133 3135 3137 3139 3142 3144 3144 3146 3148 3150 3151 3154 3155 3156 3158 3159 3158 3157 3158 3162 3165
3131 3132 3130 3130 3127 3126 3124 3121 3121 3121 3120 3121 3123 3124 3125 3126 3126 3125 3125 3126 3127 3128 3129 3131 3133 3136 3138 3140 3142 3143 3145 3145 3147 3150 3152 3154 3156 3158 3158 3160 3158 3158 3160 3164 3166
3127 3128 3126 3125 3123 3122 3119 3118 3118 3118 3119 3119 3121 3123 3126 3127 3127 3126 3127 3127 3129 3130 3131 3133 3134 3136 3139 3141 3143 3143 3143 3144 3148 3149 3151 3155 3156 3159 3159 3160 3160 3160 3161 3164 3166
3123 3124 3122 3121 3120 3118 3116 3115 3116 3116 3117 3118 3120 3123 3125 3127 3127 3128 3129 3129 3130 3130 3131 3132 3134 3136 3138 3140 3141 3142 3143 3143 3147 3150 3153 3156 3157 3157 3160 3161 3162 3163 3164 3166 3167
3118 3119 3118 3117 3116 3115 3113 3112 3114 3114 3116 3118 3120 3123 3125 3126 3127 3129 3129 3130 3130 3130 3130 3131 3132 3135 3137 3140 3141 3144 3147 3146 3147 3151 3154 3155 3158 3158 3160 3161 3163 3164 3166 3167 3169
3114 3114 3113 3113 3112 3111 3110 3111 3112 3112 3114 3117 3120 3123 3125 3126 3128 3129 3129 3130 3131 3131 3131 3131 3134 3136 3139 3139 3143 3144 3145 3147 3149 3151 3153 3155 3157 3158 3160 3161 3163 3165 3166 3167 3168
3109 3109 3110 3110 3109 3108 3108 3109 3110 3111 3114 3117 3121 3126 3126 3127 3127 3128 3129 3130 3130 3132 3134 3132 3137 3137 3138 3140 3140 3142 3144 3146 3149 3153 3154 3156 3156 3158 3159 3161 3163 3164 3165 3166 3167
3104 3106 3106 3106 3107 3106 3108 3108 3112 3113 3114 3118 3121 3122 3124 3125 3127 3128 3129 3130 3132 3132 3132 3132 3135 3136 3137 3139 3140 3142 3144 3146 3149 3151 3153 3154 3155 3156 3158 3159 3160 3162 3163 3164 3166
3099 3101 3102 3103 3105 3105 3106 3108 3109 3113 3116 3118 3120 3121 3122 3124 3126 3128 3129 3131 3132 3133 3132 3134 3134 3133 3135 3138 3140 3142 3145 3148 3148 3150 3152 3153 3154 3154 3155 3156 3158 3159 3160 3161 3162
3095 3097 3099 3100 3103 3105 3106 3107 3109 3112 3116 3118 3119 3121 3122 3124 3125 3127 3129 3129 3130 3131 3132 3133 3134 3135 3137 3139 3141 3142 3144 3145 3148 3147 3150 3153 3153 3152 3153 3154 3155 3155 3156 3157 3157
3091 3093 3095 3099 3103 3104 3106 3107 3109 3113 3117 3119 3119 3120 3121 3122 3123 3124 3127 3131 3130 3131 3133 3133 3134 3136 3138 3139 3140 3142 3142 3143 3143 3146 3148 3149 3145 3149 3149 3150 3151 3152 3152 3153 3154
3087 3090 3092 3095 3100 3104 3106 3107 3110 3114 3117 3118 3118 3119 3119 3121 3121 3122 3126 3129 3130 3131 3134 3134 3134 3136 3138 3139 3140 3141 3141 3143 3144 3147 3146 3146 3147 3144 3145 3146 3146 3147 3148 3149 3151
3081 3087 3088 3093 3099 3102 3104 3107 3111 3116 3112 3113 3115 3117 3118 3119 3120 3121 3124 3127 3129 3130 3131 3132 3134 3136 3137 3138 3139 3140 3140 3142 3144 3145 3144 3143 3144 3139 3141 3142 3142 3143 3145 3146 3148
3075 3083 3086 3092 3096 3100 3102 3107 3113 3110 3110 3112 3113 3115 3117 3118 3120 3121 3122 3125 3127 3130 3131 3132 3133 3134 3135 3137 3139 3139 3141 3141 3142 3141 3140 3140 3141 3138 3138 3138 3138 3139 3141 3143 3145
3071 3078 3084 3089 3092 3097 3101 3106 3107 3106 3107 3108 3111 3114 3116 3117 3118 3119 3121 3123 3125 3127 3130 3131 3135 3133 3133 3136 3138 3139 3140 3139 3139 3139 3136 3138 3135 3133 3133 3133 3135 3137 3139 3140 3142
3065 3073 3078 3086 3089 3094 3099 3101 3102 3103 3104 3106 3109 3113 3114 3115 3117 3118 3120 3122 3123 3125 3128 3129 3130 3130 3131 3133 3136 3135 3138 3138 3139 3139 3138 3134 3132 3131 3129 3130 3131 3133 3134 3136 3139
3061 3070 3077 3081 3086 3091 3095 3097 3099 3100 3101 3103 3107 3109 3111 3114 3116 3117 3119 3120 3121 3123 3124 3126 3128 3128 3129 3131 3133 3134 3134 3136 3137 3136 3133 3126 3129 3127 3126 3126 3127 3129 3130 3133 3136
3056 3065 3071 3077 3083 3086 3089 3093 3096 3098 3099 3102 3105 3107 3109 3110 3113 3115 3117 3118 3119 3121 3123 3124 3126 3128 3128 3129 3130 3131 3132 3133 3133 3133 3130 3127 3123 3124 3124 3123 3124 3125 3127 3129 3131
3048 3057 3064 3072 3078 3081 3086 3089 3094 3096 3097 3099 3103 3105 3107 3108 3110 3112 3114 3115 3116 3118 3120 3122 3123 3125 3127 3125 3127 3127 3129 3130 3130 3131 3130 3129 3126 3122 3122 3122 3123 3123 3124 3126 3127
3040 3053 3060 3066 3070 3074 3081 3086 3091 3094 3095 3097 3100 3103 3104 3106 3109 3109 3111 3113 3114 3116 3117 3119 3120 3122 3125 3126 3125 3125 3125 3126 3127 3127 3126 3128 3124 3121 3120 3120 3121 3121 3121 3121 3122
3041 3047 3055 3061 3067 3072 3078 3082 3088 3091 3093 3095 3098 3100 3102 3104 3105 3106 3108 3110 3112 3113 3114 3116 3117 3118 3119 3119 3120 3120 3121 3122 3124 3125 3123 3121 3121 3119 3118 3117 3117 3117 3117 3117 3118
3031 3038 3044 3048 3059 3067 3075 3080 3085 3089 3090 3093 3096 3098 3100 3102 3102 3103 3105 3107 3109 3110 3112 3113 3114 3115 3115 3116 3117 3117 3117 3118 3119 3120 3120 3118 3115 3117 3115 3113 3112 3112 3112 3111 3111
3024 3033 3041 3048 3058 3065 3071 3075 3082 3086 3088 3091 3094 3096 3098 3099 3100 3100 3102 3104 3106 3108 3108 3109 3111 3111 3112 3113 3114 3114 3114 3114 3114 3115 3112 3112 3110 3110 3109 3108 3107 3106 3105 3105 3105
3022 3032 3039 3045 3053 3061 3065 3072 3078 3084 3086 3088 3091 3093 3095 3097 3098 3099 3100 3102 3103 3104 3105 3106 3107 3109 3109 3109 3110 3110 3107 3108 3108 3108 3108 3107 3108 3104 3103 3102 3101 3100 3099 3099 3099
Wind_Speed
27 27 27 27 25 26 28 29 31 31 22 15 13 12 10 12 12 8 6 13 11 11 11 13 14 13 12 15 16 16 10 10 11 11 14 14 6 7 5 4 6 9 6 5 8
27 28 28 26 25 25 28 29 31 25 17 11 11 11 9 8 7 5 8 7 8 10 11 11 13 13 13 16 18 13 10 8 13 13 7 2 11 9 2 2 6 13 5 7 14
27 27 27 26 24 26 28 29 26 20 13 10 9 8 6 4 2 2 4 5 5 9 11 12 13 14 13 17 20 13 8 8 15 12 5 6 10 7 6 8 3 5 4 14 19
25 25 26 25 24 27 28 27 21 16 12 9 8 6 6 6 3 2 5 7 7 9 8 8 10 13 13 15 17 13 8 15 11 10 12 13 4 7 5 6 4 8 10 17 20
23 24 25 25 25 27 28 23 18 14 11 9 8 8 8 6 6 6 9 14 11 10 9 7 7 10 13 13 16 11 6 17 11 12 9 11 10 13 10 8 6 15 18 17 19
22 24 23 25 25 27 25 20 15 13 11 10 9 11 12 12 9 9 12 13 8 7 5 6 8 11 12 10 9 5 4 14 21 9 10 13 15 13 13 17 18 21 23 21 21
21 24 22 24 25 26 21 16 14 13 11 11 11 14 16 12 11 11 8 5 4 4 6 9 11 12 11 8 10 3 5 17 22 13 16 14 13 12 16 19 21 23 23 23 21
20 23 22 24 25 23 16 12 12 12 11 12 14 15 16 16 13 11 9 7 4 4 6 10 14 12 10 10 11 11 10 11 16 17 16 10 13 12 18 20 21 20 21 19 18
20 22 21 23 23 17 13 10 11 10 13 15 17 14 14 18 14 12 11 8 4 3 3 9 10 12 11 10 11 11 10 13 15 16 14 5 13 15 16 20 21 20 18 17 16
20 21 20 21 19 13 10 10 10 11 14 17 14 12 12 15 15 14 9 6 2 4 7 11 21 19 17 16 15 11 11 15 14 13 7 8 11 16 17 16 18 18 18 16 14
20 20 18 18 14 11 10 10 10 12 15 15 14 7 12 11 16 14 12 8 6 4 2 7 12 15 16 15 6 10 10 14 13 13 10 12 8 13 16 16 16 16 15 15 15
19 18 16 14 13 11 11 12 12 12 16 11 14 11 12 12 19 17 11 9 11 4 7 5 10 11 17 17 10 6 12 12 16 16 13 11 10 9 13 17 17 15 14 14 14
19 16 14 13 11 13 14 14 12 14 16 9 12 12 10 11 16 19 12 9 9 4 10 14 13 14 13 11 10 9 10 10 13 20 14 12 7 13 13 16 18 18 16 16 15
19 16 14 15 17 18 15 13 11 13 10 8 10 9 11 10 12 24 17 13 12 7 10 9 11 12 11 7 7 8 2 1 4 17 12 18 9 10 14 16 20 20 19 17 15
20 18 18 21 22 18 17 13 13 18 6 10 12 9 8 11 8 22 19 13 11 13 10 9 12 10 8 7 7 7 5 5 7 9 8 11 11 8 14 18 22 22 19 17 16
22 22 25 27 23 20 20 14 17 10 5 11 16 11 11 9 13 18 18 15 12 14 11 14 13 10 7 7 7 9 8 9 7 6 9 8 11 10 13 17 21 22 20 19 20
26 28 31 28 25 22 22 17 10 10 6 11 19 14 12 12 14 15 19 18 12 13 10 10 11 10 8 6 7 9 11 6 7 7 9 7 8 20 12 13 19 21 22 21 21
30 35 36 32 27 23 23 19 10 11 10 11 19 15 12 13 16 13 17 16 17 13 14 14 7 9 10 10 8 11 10 7 5 6 7 5 8 9 16 22 17 17 19 22 22
37 42 39 33 28 25 24 17 12 8 14 14 20 18 12 14 13 15 15 14 14 12 10 9 5 10 10 13 10 10 11 11 5 3 5 10 12 16 16 17 19 23 27 26 22
41 45 38 35 30 26 25 19 13 10 17 17 18 17 16 14 12 16 15 15 11 10 9 9 4 9 9 10 12 10 7 4 7 3 5 5 9 11 9 19 19 27 29 28 25
47 47 41 37 31 28 25 21 18 10 18 19 16 14 15 14 12 14 12 10 15 11 11 8 6 6 9 9 9 12 9 8 5 4 3 3 2 3 4 10 12 20 29 30 28
53 46 43 38 34 28 26 24 17 13 16 18 17 12 14 13 12 10 12 13 11 15 13 13 9 6 10 12 14 15 10 10 8 5 5 2 8 6 1 4 12 19 25 30 28
56 38 42 40 33 31 24 28 21 12 16 18 18 14 13 12 12 15 14 13 9 7 12 15 9 6 4 8 12 12 16 15 13 9 8 3 5 6 7 7 9 18 25 27 28
53 35 44 44 32 29 27 26 24 13 14 18 18 15 12 13 13 10 17 14 12 10 10 12 15 11 13 6 8 14 20 18 13 7 9 15 14 14 15 13 11 15 24 28 32
51 35 40 50 41 29 25 26 21 17 15 16 14 14 16 15 13 16 15 17 15 12 12 14 13 18 18 14 12 12 13 19 21 17 12 12 15 12 13 14 15 15 17 25 29
46 35 39 26 40 32 29 24 24 18 15 14 11 14 13 12 10 13 15 18 15 13 16 16 14 17 18 18 17 17 16 17 19 20 23 21 23 17 13 15 17 18 17 19 24
41 31 38 29 41 36 32 26 25 20 14 12 11 12 13 13 9 7 9 10 12 14 14 17 17 13 8 17 18 15 25 25 24 23 23 20 16 19 17 17 18 17 17 17 19
Wind_Direction
283 286 288 293 298 301 304 308 311 309 302 288 272 273 279 292 293 284 229 219 220 216 223 221 217 212 205 201 191 180 193 201 175 146 149 151 167 178 195 203 225 196 234 224 188
282 285 288 292 295 301 304 308 311 304 291 278 267 267 279 288 291 277 249 236 216 212 213 215 214 203 197 192 181 174 194 190 174 164 170 250 213 233 210 165 211 209 237 146 157
281 287 289 291 296 301 302 308 307 292 275 261 261 261 266 256 254 287 222 195 198 199 201 196 192 190 187 185 180 188 188 178 185 191 141 165 170 183 172 171 227 257 215 150 146
280 285 288 289 296 298 302 307 299 277 258 248 245 236 215 180 133 198 146 147 145 149 163 174 188 192 182 182 187 182 200 175 193 184 216 180 182 135 142 142 149 143 135 149 143
280 284 286 290 295 299 304 302 290 267 244 230 220 204 176 167 123 118 127 123 125 124 131 142 174 184 179 182 184 175 193 188 178 168 167 175 133 141 135 121 131 133 133 145 149
279 282 284 288 296 300 302 294 280 253 235 213 202 181 163 143 125 123 142 141 170 189 210 188 177 162 178 187 181 229 213 193 177 164 152 147 143 150 147 124 121 127 137 148 151
277 279 282 289 296 299 296 287 267 239 222 203 191 175 168 151 140 142 148 157 206 186 203 201 193 181 170 175 192 184 138 163 179 169 148 139 141 151 158 141 134 131 131 134 142
274 276 282 289 296 295 286 277 251 222 208 193 182 181 167 158 150 147 146 152 129 121 169 175 159 146 169 178 177 145 138 133 150 154 157 157 146 154 158 152 150 147 145 145 148
268 273 281 289 294 285 272 256 229 205 195 187 183 185 174 170 163 163 158 162 154 42 127 167 157 159 167 160 150 169 176 159 150 164 162 164 154 169 170 168 167 166 166 167 166
261 269 279 289 284 269 253 228 204 189 187 185 182 175 187 189 182 175 177 173 175 15 189 174 168 194 188 185 177 172 148 165 166 171 174 164 163 175 177 181 186 193 189 189 190
256 266 277 282 265 245 227 204 183 186 182 175 181 190 190 197 184 189 186 194 187 284 251 184 177 198 197 190 175 160 145 146 155 168 171 179 192 188 193 201 201 207 214 218 220
250 260 271 262 240 220 196 178 165 177 171 175 179 169 194 201 193 192 197 210 197 232 177 188 180 185 178 190 206 187 175 164 171 179 188 192 201 188 199 211 216 220 225 231 237
242 250 251 233 210 188 164 165 164 170 166 174 185 198 197 202 199 200 198 209 226 219 174 181 152 158 176 194 196 169 179 196 206 192 191 182 201 204 209 215 220 226 233 240 240
234 236 220 203 181 171 163 153 163 170 171 181 176 197 192 207 223 199 208 195 225 198 174 138 154 159 167 168 164 183 139 31 174 181 197 204 209 202 212 218 223 229 235 237 231
224 217 195 188 174 165 154 147 162 161 192 197 185 191 200 182 218 200 205 199 194 198 183 170 162 155 147 179 198 197 188 156 160 190 213 213 250 168 217 222 226 228 231 227 211
211 201 186 171 165 168 161 154 164 181 224 175 185 188 183 193 178 192 204 215 204 199 198 179 181 176 187 179 190 172 178 175 179 206 241 242 247 231 214 233 227 225 222 216 207
200 192 177 168 164 168 166 166 168 205 207 188 184 186 185 202 187 184 190 196 190 173 178 167 182 187 180 189 176 173 174 193 228 214 248 250 252 262 248 257 237 242 229 217 207
193 184 172 168 170 171 175 177 195 207 194 190 186 185 192 195 197 188 184 185 188 185 180 192 187 188 201 190 217 191 214 226 240 224 259 229 248 261 261 246 232 233 230 220 211
188 179 174 171 175 175 181 190 202 213 199 187 186 190 194 196 190 191 182 189 188 187 208 190 184 206 211 209 190 222 218 223 234 272 273 260 263 262 254 238 213 200 214 215 215
186 178 174 180 174 182 191 196 203 212 182 188 186 195 194 193 192 193 195 204 198 208 221 218 177 204 215 213 219 211 230 216 218 241 246 221 268 258 270 237 228 205 219 218 221
181 182 178 183 182 189 201 200 206 217 191 188 192 190 197 194 195 198 210 216 218 220 218 198 198 203 209 212 221 216 223 212 203 212 279 293 274 235 229 225 236 231 223 226 233
182 185 180 183 186 192 201 197 198 215 196 192 195 206 197 198 199 203 208 209 211 217 214 218 210 186 205 225 222 215 213 207 228 207 220 239 284 287 17 241 216 219 226 231 238
183 182 183 187 190 193 199 200 202 202 191 193 197 196 197 210 212 217 211 215 215 217 221 220 209 176 178 229 223 218 223 224 232 249 237 206 268 236 309 313 253 232 227 235 241
181 182 185 189 194 197 196 201 201 191 179 194 201 208 217 216 222 226 220 219 222 227 228 218 220 218 230 237 209 220 231 230 222 222 242 244 267 278 288 282 277 243 247 244 244
182 188 185 190 194 195 200 202 196 198 182 181 194 211 216 226 237 226 215 218 227 225 234 227 231 236 244 252 251 238 239 237 230 243 239 276 272 274 273 279 277 262 242 239 244
184 186 184 191 196 196 202 200 196 193 183 187 198 209 215 220 233 223 220 221 221 230 232 232 234 243 249 249 249 247 242 237 239 242 261 267 286 287 286 276 282 274 255 249 250
183 184 188 188 197 200 203 201 195 195 185 193 211 211 209 212 209 209 208 224 235 237 232 228 230 235 241 245 246 258 249 251 258 265 269 265 290 286 294 286 288 272 261 258 255